User: anonymous   Login
Location: Grange Verzio
(44.5000°N, 6.9833°E)
Time: 09:29:08
(UTC+00:00)
Language:

BlueWalker 3 - Orbit

View from above orbital plane
View from above orbital plane
View from above satellite
View from above satellite

Ground track
Ground track

The orbit data is extracted from the following two-line orbital elements,

1 53807U 22111AL  23156.91557851  .00005355  00000-0  25400-3 0  9990
2 53807  53.1992 124.8357 0013769  18.7822 341.3680 15.20792422 40731
Epoch (UTC): 05 June 2023 21:58:25
Eccentricity: 0.0013769
inclination: 53.1992°
perigee height: 494 km
apogee height: 513 km
right ascension of ascending node: 124.8357°
argument of perigee: 18.7822°
revolutions per day: 15.20792422
mean anomaly at epoch: 341.3680°
orbit number at epoch: 4073

The dashed part of the orbit path shows where the satellite is in the earth's shadow,  

DLR